Location: *
(38.9800°N, 16.0500°E)
Time: 05:45:12
(UTC+00:00)

Geosat - Pass Details

Date: 07 April 2020
Orbit: 763 x 766 km, 108.0° (Epoch: 05 June)

Event Time Altitude Azimuth Distance (km) Brightness Sun altitude
Rises 03:09:52 0° 21° (NNE) 3,237 7.9 -15.9°
Reaches altitude 10° 03:12:10 10° 19° (NNE) 2,308 7.1 -15.5°
Maximum altitude 03:17:08 62° 299° (WNW) 857 4.0 -14.6°
Enters shadow 03:20:58 17° 222° (SW) 1,865 5.5 -13.9°
